Spartanburg, SC

1:37 AM EDT on April 27, 2017 (GMT -0400)
Spartanburg Downtown Memorial

Weather History for KSPA - March, 2013

Change the Weather History Date:

Thursday, March 21, 2013

  Actual Average (KGSP) Record (KGSP)
Temperature  
Mean Temperature 42 °F -  
Max Temperature 50 °F 65 °F 88 °F (1907)
Min Temperature 33 °F 41 °F 18 °F (1965)
Degree Days  
Heating Degree Days 24    
Moisture  
Dew Point 18 °F    
Average Humidity 41    
Maximum Humidity 70    
Minimum Humidity 27    
Precipitation  
Precipitation 0.00 in - - ()
Sea Level Pressure  
Sea Level Pressure 29.86 in    
Wind  
Wind Speed 10 mph (NNW)    
Max Wind Speed 15 mph    
Max Gust Speed 26 mph    
Visibility 10 miles    
Events      
Averages and records for this station are not official NWS values.
T = Trace of Precipitation, MM = Missing Value Source: NWS Daily Summary

Daily Weather History Graph

Daily Weather History Graph

Search for Another Location

Airport or City:

Trip Planner

Search our weather history database for the weather conditions in past years. The results will help you decide how hot, cold, wet, or windy it might be!

Date:

Astronomy

Mar. 21, 2013 Rise Set
Actual Time 7:29 AM EDT 7:40 PM EDT
Civil Twilight 7:04 AM EDT 8:05 PM EDT
Nautical Twilight 6:35 AM EDT 8:35 PM EDT
Astronomical Twilight 6:05 AM EDT 9:05 PM EDT
Moon 2:20 PM EDT (3/21) 3:39 AM EDT (3/21)
Length of Visible Light 13h 01m
Length of Day
12h 10m
Waxing Gibbous, 68% of the Moon is Illuminated
Mar 21
Waxing Gibbous
Mar 27
Full
Apr 3
Last Quarter
Apr 10
New
Apr 18
First Quarter

Hourly Weather History & Observations

Time (EDT) Temp. Windchill Dew Point Humidity Pressure Visibility Wind Dir Wind Speed Gust Speed Precip Events Conditions
12:15 AM 46.4 °F 41.1 °F 21.2 °F 37% 29.82 in 10.0 mi WNW 11.5 mph - N/A   Clear
12:35 AM 46.4 °F 41.5 °F 23.0 °F 40% 29.83 in 10.0 mi NW 10.4 mph 18.4 mph N/A   Clear
12:55 AM 44.6 °F 38.4 °F 32.0 °F 61% 29.85 in 10.0 mi NNW 12.7 mph 26.5 mph N/A   Clear
1:15 AM 42.8 °F 36.2 °F 32.0 °F 66% 29.85 in 10.0 mi NW 12.7 mph 20.7 mph N/A   Clear
1:35 AM 41.0 °F 33.9 °F 32.0 °F 70% 29.85 in 10.0 mi NNW 12.7 mph 20.7 mph N/A   Clear
1:55 AM 41.0 °F 34.7 °F 30.2 °F 65% 29.85 in 10.0 mi NW 10.4 mph 19.6 mph N/A   Clear
2:35 AM 41.0 °F 34.7 °F 28.4 °F 61% 29.84 in 10.0 mi NNW 10.4 mph - N/A   Clear
2:55 AM 39.2 °F 33.0 °F 26.6 °F 61% 29.83 in 10.0 mi NW 9.2 mph - N/A   Clear
3:15 AM 39.2 °F 33.0 °F 26.6 °F 61% 29.84 in 10.0 mi NNW 9.2 mph - N/A   Clear
3:35 AM 39.2 °F 35.9 °F 26.6 °F 61% 29.83 in 10.0 mi NW 4.6 mph - N/A   Clear
4:15 AM 37.4 °F 31.4 °F 26.6 °F 65% 29.83 in 10.0 mi NW 8.1 mph - N/A   Clear
4:35 AM 37.4 °F 30.8 °F 26.6 °F 65% 29.82 in 10.0 mi NW 9.2 mph - N/A   Clear
4:55 AM 37.4 °F 30.3 °F 24.8 °F 60% 29.82 in 10.0 mi NNW 10.4 mph - N/A   Clear
5:15 AM 37.4 °F 31.4 °F 23.0 °F 56% 29.82 in 10.0 mi NNW 8.1 mph - N/A   Clear
6:35 AM 35.6 °F 29.9 °F 19.4 °F 52% 29.83 in 10.0 mi NW 6.9 mph - N/A   Clear
7:35 AM 33.8 °F 27.7 °F 14.0 °F 44% 29.84 in 10.0 mi NNW 6.9 mph - N/A   Clear
7:55 AM 33.8 °F 27.0 °F 12.2 °F 41% 29.84 in 10.0 mi NNW 8.1 mph - N/A   Clear
8:15 AM 33.8 °F 27.0 °F 12.2 °F 41% 29.85 in 10.0 mi NNW 8.1 mph - N/A   Clear
8:35 AM 33.8 °F 27.7 °F 12.2 °F 41% 29.85 in 10.0 mi NNW 6.9 mph - N/A   Clear
9:15 AM 35.6 °F 26.6 °F 10.4 °F 35% 29.86 in 10.0 mi NW 13.8 mph - N/A   Clear
9:55 AM 37.4 °F 29.3 °F 12.2 °F 36% 29.87 in 10.0 mi NW 12.7 mph 16.1 mph N/A   Clear
10:15 AM 37.4 °F 30.3 °F 12.2 °F 36% 29.87 in 10.0 mi NW 10.4 mph - N/A   Clear
10:35 AM 37.4 °F 29.3 °F 10.4 °F 33% 29.88 in 10.0 mi NNW 12.7 mph 19.6 mph N/A   Clear
12:15 PM 42.8 °F 36.6 °F 12.2 °F 29% 29.87 in 10.0 mi NNW 11.5 mph 16.1 mph N/A   Clear
12:35 PM 42.8 °F 39.3 °F 12.2 °F 29% 29.87 in 10.0 mi North 5.8 mph 16.1 mph N/A   Clear
12:55 PM 42.8 °F 38.0 °F 14.0 °F 31% 29.88 in 10.0 mi NW 8.1 mph 17.3 mph N/A   Clear
2:55 PM 46.4 °F 43.5 °F 15.8 °F 29% 29.84 in 10.0 mi NW 5.8 mph - N/A   Clear
3:15 PM 48.2 °F - 17.6 °F 30% 29.83 in 10.0 mi NW 9.2 mph - N/A   Clear
3:35 PM 48.2 °F - 17.6 °F 30% 29.83 in 10.0 mi WNW 11.5 mph - N/A   Clear
3:55 PM 50.0 °F - 17.6 °F 28% 29.83 in 10.0 mi NNW 10.4 mph 17.3 mph N/A   Clear
4:15 PM 48.2 °F - 17.6 °F 30% 29.82 in 10.0 mi WNW 6.9 mph - N/A   Clear
4:35 PM 50.0 °F - 17.6 °F 28% 29.83 in 10.0 mi North 15.0 mph - N/A   Clear
4:55 PM 50.0 °F - 17.6 °F 28% 29.83 in 10.0 mi NNW 6.9 mph 16.1 mph N/A   Clear
5:15 PM 50.0 °F - 17.6 °F 28% 29.83 in 10.0 mi NNE 9.2 mph 16.1 mph N/A   Clear
5:35 PM 48.2 °F - 17.6 °F 30% 29.83 in 10.0 mi NNE 9.2 mph 18.4 mph N/A   Clear
5:55 PM 48.2 °F - 17.6 °F 30% 29.84 in 10.0 mi North 8.1 mph - N/A   Clear
6:15 PM 48.2 °F - 15.8 °F 27% 29.84 in 10.0 mi North 12.7 mph 17.3 mph N/A   Clear
6:35 PM 46.4 °F 41.9 °F 15.8 °F 29% 29.84 in 10.0 mi North 9.2 mph - N/A   Clear
6:55 PM 46.4 °F 41.1 °F 15.8 °F 29% 29.85 in 10.0 mi North 11.5 mph - N/A   Clear
7:15 PM 44.6 °F 38.1 °F 14.0 °F 29% 29.85 in 10.0 mi North 13.8 mph - N/A   Clear
7:35 PM 44.6 °F 39.2 °F 14.0 °F 29% 29.86 in 10.0 mi NNE 10.4 mph - N/A   Clear
7:55 PM 42.8 °F 37.5 °F 14.0 °F 31% 29.87 in 10.0 mi North 9.2 mph - N/A   Clear
8:15 PM 42.8 °F 36.6 °F 14.0 °F 31% 29.88 in 10.0 mi NNE 11.5 mph - N/A   Clear
8:35 PM 41.0 °F 34.3 °F 14.0 °F 33% 29.89 in 10.0 mi NNE 11.5 mph - N/A   Clear
8:55 PM 41.0 °F 36.4 °F 14.0 °F 33% 29.89 in 10.0 mi NNE 6.9 mph - N/A   Clear
9:15 PM 41.0 °F 34.7 °F 14.0 °F 33% 29.90 in 10.0 mi NNE 10.4 mph - N/A   Clear
9:35 PM 39.2 °F 33.6 °F 14.0 °F 36% 29.91 in 10.0 mi NNE 8.1 mph - N/A   Clear
9:55 PM 37.4 °F 32.8 °F 14.0 °F 38% 29.91 in 10.0 mi NNE 5.8 mph - N/A   Clear
10:15 PM 37.4 °F 32.1 °F 14.0 °F 38% 29.92 in 10.0 mi NNE 6.9 mph - N/A   Clear
10:35 PM 37.4 °F 32.1 °F 14.0 °F 38% 29.93 in 10.0 mi NNE 6.9 mph - N/A   Clear
10:55 PM 37.4 °F 32.8 °F 14.0 °F 38% 29.93 in 10.0 mi NNE 5.8 mph - N/A   Clear
11:15 PM 35.6 °F 32.8 °F 15.8 °F 44% 29.94 in 10.0 mi NE 3.5 mph - N/A   Clear
11:35 PM 35.6 °F - 14.0 °F 41% 29.95 in 10.0 mi Calm Calm - N/A   Clear
11:55 PM 35.6 °F 32.8 °F 15.8 °F 44% 29.94 in 10.0 mi NE 3.5 mph - N/A   Clear